Weather Roundup
Issued by NWS Chicago, IL

Home | Current Version | Previous Version | Graphics & Text | Print | Product List | Glossary On
Versions: 1 2 3 4 5 6 7 8 9 10 11 12 13 14 15 16 17 18 19 20 21 22 23 24 25 26 27 28 29 30 31 32 33 34 35 36 37 38 39 40 41 42 43 44 45 46 47 48 49 50
000
NZUS59 KLOT 210706
HRRLOT

CHICAGO AREA WEATHER ROUNDUP
NATIONAL WEATHER SERVICE CHICAGO/ROMEOVILLE IL
200 AM CDT TUE OCT 21 2014

NOTE: "FAIR" INDICATES FEW OR NO CLOUDS BELOW 12,000 FEET WITH NO
SIGNIFICANT WEATHER AND/OR OBSTRUCTIONS TO VISIBILITY.

* THESE STATIONS ARE NOT UNDER NWS QUALITY CONTROL. THEY ALSO MAY NOT
  REPORT WEATHER SUCH AS PRECIPITATION OR FOG.

ILZ005-006-012>014-019>023-210800-
NORTHEAST ILLINOIS

CITY           SKY/WX    TMP DP  RH WIND       PRES   REMARKS
OHARE          CLOUDY    51  43  74 N6        30.01R
MIDWAY         CLOUDY    53  45  74 N7        30.01R
AURORA         CLOUDY    49  41  74 N5        30.03R
LANSING*       CLOUDY    52  44  74 N6        30.00S
JOLIET*        CLOUDY    48  42  78 CALM      30.02R
WAUKEGAN       CLOUDY    49  40  71 N6        30.01R
DUPAGE AIRPORT CLOUDY    51  43  74 N5        30.02R
WHEELING       CLOUDY    52  43  71 N3        30.03R
KANKAKEE*      CLOUDY    50  46  85 NW3       30.02R
MORRIS*        CLOUDY    48  43  84 CALM      30.01S
LEWIS AIRPORT* CLOUDY    50  42  72 N5        30.02R
NORTHERLY IS     N/A     52  44  74 NW12        N/A
$$

WIZ051-052-058>065-066-070>072-210800-
SOUTHEAST WISCONSIN

CITY           SKY/WX    TMP DP  RH WIND       PRES   REMARKS
MILWAUKEE      CLOUDY    49  41  74 N8        30.03R
KENOSHA*       CLOUDY    49  42  77 N6        30.02S
RACINE*        CLOUDY    49  42  77 N9        30.03R
BURLINGTON     CLOUDY    47  39  75 N6        30.03R
WAUKESHA       CLOUDY    45  37  76 N6        30.04R
WEST BEND      CLOUDY    43  37  81 N5        30.04R
$$

INZ001>003-010>013-019-020-210800-
NORTHWEST INDIANA

CITY           SKY/WX    TMP DP  RH WIND       PRES   REMARKS
GARY*          CLOUDY    54  44  67 N12       30.01R
MICHIGAN CITY* NOT AVBL
RENSSELAER*    NOT AVBL
VALPARAISO     CLOUDY    51  44  77 N6        29.99R
$$

LMZ740>746-210800-
SOUTHERN LAKE MICHIGAN

STATION/POSITION TIME  SKY/WX   TEMP WIND        PRES    VSBY
                                AIR  DIR/SP/G
                 (UTC)          (F)  (DEG/KT/KT) (MB)    (MI)
HARRISON CRIB    0700            52  350/ 17/ 19   N/A
BURNHAM HARBOR   0700            52  330/  9/ 15   N/A
CALUMET HARBOR   0700            52  330/  8/ 14 1014.9R
BURNS HARBOR     NOT AVBL
MICHIGAN CITY    0700            52  350/ 22/ 29   N/A
$$

ABBREVIATIONS USED IN REMARKS
   TC - TEMPERATURE IN CELSIUS
  WCI - WIND CHILL INDEX
   HX - HEAT INDEX
  VSB - VISIBILITY
$$



USA.gov is the U.S. government's official web portal to all federal, state and local government web resources and services.